CAPE
0 0 0 0 0 2 0 41 39 5 2 140 34 0 411 605 745 711 1631 1608 1738 1214 980 1436 1429 1516 1489 1448 1395 1329 1225 1139 856 494 396 257 221 170 230 249 299 604 797 684 587 407 405 319 250
0 0 0 0 1 35 25 7 6 25 217 419 143 20 137 384 27 480 1724 1628 1763 1150 1005 1424 1313 1437 1489 1390 1341 1248 1174 984 668 434 324 274 259 264 338 387 404 485 595 742 639 532 441 317 306
0 0 0 43 40 71 31 1 14 193 547 798 443 273 441 1231 1168 1548 1710 1893 1833 1095 924 1435 1238 1274 1359 1322 1245 1145 966 681 457 372 406 407 306 303 474 516 681 924 644 638 693 580 455 355 388
0 0 0 0 19 21 0 21 85 379 436 511 710 117 380 1525 1744 1879 1548 1951 1873 1134 835 954 1078 1106 1298 1324 1164 915 745 451 333 373 461 384 322 482 412 556 866 897 984 933 780 617 372 354 212
0 0 10 54 34 19 18 130 319 384 276 590 912 542 378 644 367 1401 1489 1649 1555 986 1035 1153 976 1109 1201 1226 995 718 512 289 314 415 324 331 420 354 367 354 597 657 964 1117 723 418 246 205 167
0 0 27 11 19 5 170 51 25 643 512 906 876 376 28 50 0 484 1770 1712 1584 1119 1204 896 964 1080 1063 947 700 487 312 297 350 376 370 381 315 322 320 296 319 464 633 754 522 329 186 153 67
0 46 48 26 20 138 244 641 706 653 352 145 934 826 1071 750 10 772 1532 1470 1133 589 266 746 994 929 818 536 396 277 204 249 324 330 277 240 236 259 289 258 293 324 373 403 279 162 109 27 0
0 6 27 34 22 70 269 633 878 1033 842 944 1016 610 871 1470 1598 1243 1328 1000 657 221 298 509 287 508 362 184 171 179 155 196 211 195 165 172 184 224 255 282 328 292 266 242 89 34 0 0 0
0 1 12 26 52 12 151 444 1176 1017 821 809 1071 1231 1748 1752 1719 1447 1093 694 453 204 251 193 286 109 63 49 219 215 238 220 144 128 97 34 55 34 123 283 276 141 88 87 3 0 0 0 0
0 56 25 4 10 11 2 273 572 673 732 649 995 1351 1822 1652 1622 1092 870 780 745 492 379 186 178 69 25 3 143 213 161 135 66 56 88 16 67 139 110 148 98 17 0 0 0 0 0 0 0
20 19 5 3 14 17 24 350 575 546 324 587 543 1243 1616 1609 1378 1014 729 650 515 469 345 206 183 137 1 87 93 145 138 114 107 162 126 163 195 225 211 73 18 0 0 0 0 0 0 0 0
0 18 13 22 15 208 337 379 314 320 519 640 569 999 1524 1425 955 699 510 490 453 326 265 176 141 4 4 5 0 17 118 125 129 171 374 482 293 403 306 122 57 7 0 2 0 3 4 2 0
2 8 23 127 57 412 251 225 229 268 665 1068 936 934 1125 856 559 509 361 330 265 268 176 176 128 31 8 3 1 2 52 131 224 306 401 407 411 617 537 483 88 29 3 7 5 9 0 0 0
46 21 89 189 298 349 178 222 198 866 783 732 783 762 528 516 385 322 206 138 199 110 163 83 19 8 4 80 81 113 190 227 291 335 506 728 826 625 614 229 57 28 20 9 0 2 0 0 0
74 42 48 124 191 229 178 77 20 556 560 771 563 389 201 346 300 189 83 72 64 29 20 34 4 3 0 2 3 1 146 233 267 549 885 599 613 492 412 194 165 38 2 0 4 1 0 0 0
64 67 67 28 141 130 80 44 127 639 549 403 437 296 221 167 48 23 35 8 2 2 2 7 1 1 3 28 58 57 160 301 484 511 749 640 549 457 452 273 106 0 3 0 0 0 0 0 0
72 44 62 104 26 67 58 56 300 528 413 374 405 42 104 138 0 7 1 0 3 15 3 3 25 13 99 188 200 190 348 633 591 669 618 565 490 430 328 197 5 0 0 0 0 0 0 0 0
77 83 60 21 9 54 35 40 111 513 339 266 334 144 0 6 78 67 51 18 94 92 62 75 137 194 270 408 356 319 364 576 677 788 711 597 512 361 268 98 0 0 0 0 0 0 0 0 0
29 24 71 67 35 14 32 46 29 521 522 418 111 437 78 8 109 144 85 68 54 71 31 26 147 213 457 491 305 199 232 485 655 611 649 616 431 310 231 45 3 0 0 0 0 0 0 0 0
9 26 45 67 35 0 17 48 19 300 462 567 444 201 360 187 143 128 163 165 72 21 1 19 200 407 526 398 169 75 224 568 713 665 516 329 43 45 175 37 0 0 0 0 0 0 0 0 0
22 36 45 54 22 1 0 30 54 142 451 561 609 345 376 304 216 160 230 252 198 72 76 122 313 525 716 383 73 132 550 417 477 497 366 182 67 84 57 0 0 0 0 0 0 0 0 2 0
36 18 1 11 10 11 56 13 82 60 195 480 584 624 376 411 245 196 260 275 269 270 308 366 505 640 742 956 238 313 583 521 508 528 232 30 54 24 44 3 0 0 0 0 0 0 0 0 0
30 0 0 21 78 109 91 2 31 15 50 137 346 668 651 473 459 302 283 266 328 392 385 426 522 591 740 827 781 495 479 449 554 449 94 64 53 49 15 2 0 0 0 0 0 0 5 3 0
7 0 15 72 124 151 43 99 32 26 3 13 74 330 601 736 569 429 432 319 331 1025 1010 987 530 575 796 1129 1065 875 667 556 478 204 38 50 0 0 23 1 3 2 0 0 0 3 1 1 2
0 54 166 140 188 165 84 48 42 63 8 4 10 74 259 590 880 727 432 470 434 643 1023 1111 842 822 883 1192 1245 1272 1082 887 479 143 30 71 63 35 58 1 1 2 0 0 1 2 14 8 13
7 74 168 168 115 177 33 32 39 24 2 0 1 23 55 230 669 988 990 665 531 944 1183 1012 1000 935 849 925 1060 1010 997 783 404 202 73 56 55 85 47 0 6 1 0 0 1 1 2 16 19
58 61 94 145 93 143 144 123 90 25 0 0 27 78 157 297 251 527 899 1245 1045 985 1113 1379 1152 972 916 1030 1288 1153 798 677 635 514 258 63 69 55 2 0 9 1 1 8 12 1 1 12 0
13 54 61 73 50 123 136 106 120 14 0 16 20 11 243 278 296 364 545 986 1315 1305 992 1338 1143 984 1003 1029 1116 867 661 646 603 485 235 158 85 62 5 0 0 13 20 1 0 0 0 0 0
1 45 63 91 69 127 162 132 39 1 14 0 5 0 3 153 325 374 524 731 1041 1409 1288 1238 1110 912 911 1093 1073 774 810 572 393 323 229 159 110 90 11 13 29 21 7 0 0 0 0 0 0
44 24 54 84 57 75 75 129 63 17 42 17 4 0 2 38 212 391 466 528 760 1191 1352 1435 1333 1052 947 1065 1082 541 543 334 375 297 342 190 120 52 75 9 0 0 2 0 0 0 0 0 0
CIN
-0 -0 -0 -0 -0 -0 -0 -0 -4 -0 -0 -0 -7 -0 -4 -46 -9 -0 -29 -71 -41 -126 -133 -17 -5 -1 -0 -0 -0 -0 -0 -0 -5 -31 -37 -46 -57 -47 -43 -31 -13 -0 -0 -0 -0 -8 -12 -17 -30
-0 -0 -0 -0 -0 -0 -1 -23 -9 -3 -3 -11 -14 -24 -21 -35 -35 -1 -24 -60 -53 -114 -114 -23 -19 -3 -0 -0 -0 -0 -0 -0 -13 -34 -35 -39 -33 -35 -32 -22 -9 -0 -0 -0 -0 -2 -6 -16 -15
-0 -0 -0 -0 -0 -0 -2 -27 -20 -0 -0 -9 -12 -2 -0 -6 -5 -0 -21 -24 -25 -130 -109 -15 -9 -5 -0 -0 -0 -0 -0 -9 -27 -35 -23 -21 -25 -42 -15 -12 -0 -0 -0 -0 -0 -0 -2 -6 -7
-0 -0 -0 -0 -0 -3 -0 -2 -1 -0 -0 -0 -0 -27 -5 -22 -0 -0 -19 -4 -14 -88 -124 -106 -10 -5 -0 -0 -0 -0 -0 -16 -31 -25 -10 -13 -12 -8 -17 -4 -0 -0 -0 -0 -0 -0 -11 -17 -38
-0 -0 -0 -0 -0 -0 -0 -19 -9 -0 -112 -1 -2 -1 -33 -144 -125 -61 -22 -3 -5 -9 -27 -0 -1 -1 -0 -0 -0 -0 -9 -37 -34 -12 -23 -11 -1 -25 -37 -40 -6 -5 -0 -0 -0 -8 -31 -43 -55
-0 -0 -0 -9 -2 -2 -15 -78 -104 -2 -0 -1 -0 -37 -90 -367 -0 -268 -0 -0 -3 -4 -11 -6 -2 -2 -1 -0 -0 -11 -37 -41 -37 -23 -23 -16 -44 -42 -45 -50 -47 -25 -13 -1 -5 -25 -46 -52 -84
-0 -0 -0 -0 -0 -15 -1 -8 -0 -0 -15 -68 -0 -6 -38 -106 -268 -138 -4 -20 -14 -16 -121 -1 -1 -4 -0 -0 -1 -16 -52 -45 -24 -42 -61 -90 -96 -106 -70 -76 -58 -60 -31 -30 -40 -61 -75 -143 -0
-0 -0 -0 -0 -2 -45 -3 -1 -10 -8 -0 -15 -18 -12 -31 -24 -1 -4 -1 -3 -7 -30 -0 -10 -37 -12 -21 -37 -18 -0 -5 -4 -30 -65 -115 -168 -131 -123 -84 -67 -53 -66 -64 -56 -100 -163 -0 -0 -0
-0 -0 -11 -0 -0 -53 -2 -10 -12 -23 -9 -0 -0 -0 -3 -22 -0 -0 -0 -14 -71 -24 -0 -0 -0 -0 -6 -22 -9 -13 -4 -1 -61 -80 -173 -234 -186 -197 -72 -68 -69 -89 -110 -114 -56 -0 -0 -0 -0
-0 -0 -2 -5 -1 -4 -11 -6 -15 -7 -2 -2 -1 -0 -0 -5 -0 -4 -2 -0 -0 -6 -0 -9 -0 -6 -6 -0 -8 -4 -7 -14 -40 -120 -98 -150 -121 -58 -69 -96 -115 -206 -0 -0 -0 -0 -0 -0 -0
-0 -0 -2 -0 -6 -26 -3 -0 -6 -0 -0 -0 -0 -0 -0 -0 -0 -0 -0 -0 -0 -0 -0 -0 -0 -0 -0 -2 -8 -20 -1 -0 -4 -12 -48 -45 -28 -31 -40 -99 -113 -0 -0 -0 -0 -0 -0 -0 -0
-0 -0 -1 -1 -14 -4 -0 -0 -0 -0 -3 -20 -9 -0 -0 -0 -0 -0 -0 -3 -0 -0 -0 -0 -0 -18 -5 -0 -0 -4 -10 -0 -5 -6 -1 -3 -17 -1 -1 -32 -30 -5 -0 -3 -0 -10 -8 -14 -0
-0 -0 -0 -11 -11 -1 -14 -2 -11 -0 -35 -49 -0 -7 -0 -0 -1 -0 -0 -0 -0 -0 -0 -0 -0 -3 -0 -0 -0 -15 -19 -4 -9 -0 -1 -6 -2 -5 -2 -0 -10 -15 -4 -4 -7 -6 -0 -0 -0
-0 -0 -0 -4 -0 -2 -21 -4 -9 -3 -39 -63 -25 -0 -0 -0 -0 -0 -0 -0 -0 -1 -0 -0 -13 -10 -0 -6 -16 -35 -19 -5 -0 -7 -1 -0 -2 -8 -1 -5 -26 -49 -3 -5 -0 -11 -0 -0 -0
-0 -0 -0 -0 -0 -2 -11 -43 -67 -14 -17 -3 -11 -1 -19 -0 -0 -7 -18 -12 -10 -14 -10 -8 -0 -0 -0 -0 -0 -1 -2 -4 -12 -14 -0 -0 -2 -0 -8 -21 -15 -8 -0 -0 -6 -0 -0 -0 -0
-0 -0 -0 -133 -13 -7 -13 -60 -4 -18 -2 -5 -7 -12 -21 -18 -82 -5 -34 -3 -3 -7 -0 -0 -0 -0 -0 -14 -6 -16 -0 -2 -3 -0 -10 -0 -0 -11 -7 -2 -0 -0 -3 -0 -0 -0 -0 -0 -0
-0 -2 -6 -0 -0 -0 -2 -0 -1 -14 -3 -0 -0 -58 -60 -5 -1 -0 -0 -0 -0 -0 -0 -0 -0 -17 -0 -0 -0 -0 -0 -2 -4 -6 -2 -0 -3 -5 -0 -0 -8 -0 -0 -0 -0 -0 -0 -0 -0
-0 -0 -0 -3 -14 -0 -0 -0 -0 -5 -3 -0 -0 -15 -0 -44 -22 -7 -2 -3 -5 -0 -2 -1 -0 -2 -1 -0 -0 -0 -4 -0 -0 -0 -0 -0 -0 -4 -1 -2 -0 -0 -0 -0 -0 -0 -0 -0 -0
-0 -0 -0 -1 -1 -0 -0 -0 -2 -1 -4 -4 -18 -0 -74 -125 -12 -16 -86 -19 -18 -1 -0 -2 -0 -4 -0 -0 -0 -0 -0 -0 -0 -0 -0 -0 -0 -3 -0 -4 -20 -0 -0 -0 -0 -0 -0 -0 -0
-0 -0 -0 -0 -0 -0 -1 -0 -7 -0 -0 -6 -19 -12 -1 -18 -49 -50 -23 -25 -49 -58 -21 -19 -0 -0 -0 -0 -0 -7 -0 -0 -0 -0 -0 -7 -35 -17 -2 -8 -0 -0 -0 -0 -0 -0 -0 -0 -0
-0 -0 -0 -0 -0 -4 -0 -3 -3 -0 -0 -0 -9 -9 -11 -11 -51 -78 -49 -22 -16 -51 -52 -26 -0 -0 -0 -0 -12 -3 -0 -0 -0 -0 -0 -27 -5 -15 -14 -0 -0 -0 -0 -0 -0 -0 -0 -0 -0
-0 -1 -0 -0 -0 -12 -0 -13 -23 -0 -0 -0 -5 -2 -13 -23 -46 -64 -46 -48 -41 -20 -4 -0 -0 -0 -0 -0 -3 -0 -0 -0 -0 -0 -18 -9 -10 -5 -1 -0 -0 -0 -0 -0 -0 -0 -0 -0 -0
-0 -0 -0 -14 -0 -0 -0 -0 -3 -1 -0 -0 -2 -5 -1 -11 -27 -74 -85 -84 -68 -36 -34 -15 -7 -1 -0 -0 -2 -0 -0 -1 -1 -5 -45 -3 -15 -0 -2 -2 -0 -0 -0 -0 -0 -0 -1 -0 -0
-1 -0 -32 -3 -0 -0 -1 -0 -7 -2 -0 -11 -1 -5 -9 -0 -9 -18 -54 -56 -58 -3 -2 -0 -12 -4 -0 -2 -0 -0 -0 -0 -1 -38 -4 -15 -6 -0 -7 -38 -0 -0 -0 -0 -0 -0 -1 -0 -0
-0 -0 -0 -1 -0 -0 -4 -8 -1 -9 -0 -20 -1 -0 -0 -2 -0 -1 -2 -34 -48 -35 -16 -5 -8 -0 -0 -0 -0 -0 -0 -0 -15 -42 -8 -17 -17 -15 -3 -19 -0 -0 -0 -0 -0 -1 -0 -0 -1
-0 -0 -0 -0 -1 -0 -8 -13 -0 -10 -2 -0 -33 -21 -18 -7 -1 -0 -2 -13 -29 -24 -21 -35 -31 -29 -12 -12 -15 -6 -5 -0 -20 -27 -36 -9 -4 -0 -3 -0 -1 -0 -0 -0 -0 -0 -0 -3 -0
-0 -0 -0 -0 -2 -4 -0 -0 -8 -23 -0 -7 -26 -19 -10 -13 -17 -8 -0 -0 -8 -23 -34 -43 -46 -43 -26 -20 -7 -9 -11 -10 -4 -3 -12 -14 -0 -0 -0 -0 -7 -0 -0 -0 -0 -0 -0 -0 -0
-4 -0 -0 -0 -0 -0 -0 -0 -0 -20 -0 -35 -17 -24 -3 -29 -32 -25 -21 -1 -0 -3 -55 -56 -59 -46 -27 -11 -10 -37 -44 -17 -5 -3 -1 -0 -1 -1 -15 -0 -0 -0 -0 -6 -0 -0 -0 -0 -0
-0 -0 -0 -0 -0 -0 -0 -0 -22 -3 -0 -0 -5 -0 -37 -26 -26 -37 -28 -23 -8 -0 -18 -61 -65 -32 -5 -4 -20 -51 -34 -20 -4 -1 -0 -0 -0 -0 -19 -2 -0 -2 -0 -0 -0 -0 -0 -0 -0
-0 -0 -0 -0 -0 -0 -0 -0 -1 -0 -0 -3 -10 -0 -8 -17 -10 -15 -24 -32 -33 -27 -8 -16 -34 -29 -4 -6 -7 -77 -53 -61 -18 -8 -0 -0 -0 -0 -0 -0 -1 -0 -1 -0 -0 -0 -0 -0 -0
Wind_Speed
nan nan nan nan nan nan nan nan nan nan nan 23 nan nan 24 65 57 34 46 43 42 38 39 35 36 40 39 40 41 43 44 43 44 41 36 34 34 29 28 26 27 27 28 30 30 30 29 27 25
nan nan nan nan nan nan nan nan nan nan 41 34 27 nan 32 35 nan 10 36 36 37 37 39 38 38 40 40 43 43 45 44 43 41 40 35 36 36 35 29 28 27 28 30 31 31 31 30 24 23
nan nan nan nan nan nan nan nan nan 20 35 25 15 16 29 59 33 28 30 24 27 31 33 45 41 43 46 48 47 44 43 39 37 35 35 36 35 36 31 32 30 30 31 31 31 29 26 23 20
nan nan nan nan nan nan nan nan nan 9 14 20 14 14 28 53 36 39 35 25 27 33 35 47 42 45 41 43 44 45 40 37 37 34 33 34 35 36 37 37 35 34 31 30 31 27 25 21 21
nan nan nan nan nan nan nan 38 18 9 15 24 13 14 31 34 47 42 32 20 17 31 48 48 46 42 40 44 42 40 40 41 41 33 34 34 36 38 40 42 40 38 34 33 31 27 23 21 21
nan nan nan nan nan nan 38 nan nan 11 8 14 8 21 nan nan nan 49 21 12 22 32 41 44 42 47 43 43 43 43 43 42 41 35 36 36 36 36 42 43 43 39 38 35 30 26 24 23 nan
nan nan nan nan nan 32 17 24 11 11 8 14 29 29 16 12 nan 41 27 18 27 35 35 40 35 41 38 39 38 39 39 38 38 39 39 39 46 47 38 40 41 41 38 33 31 27 27 nan nan
nan nan nan nan nan nan 4 21 17 8 21 19 2 4 23 4 5 2 20 23 32 41 36 34 32 32 32 35 46 41 36 35 42 47 45 43 43 46 37 37 41 40 36 32 nan nan nan nan nan
nan nan nan nan nan nan 12 13 17 12 6 15 16 11 21 13 13 19 27 30 29 33 31 25 27 34 nan nan 49 48 43 35 41 39 nan nan nan nan 34 46 39 36 nan nan nan nan nan nan nan
nan nan nan nan nan nan nan 8 8 6 14 8 17 24 23 15 16 21 23 29 29 27 34 36 36 nan nan nan 46 51 50 42 nan nan nan nan nan 32 37 42 nan nan nan nan nan nan nan nan nan
nan nan nan nan nan nan nan 7 11 2 7 30 19 21 22 17 19 23 25 25 29 33 33 36 39 45 nan nan nan 40 32 41 27 33 52 46 40 39 30 nan nan nan nan nan nan nan nan nan nan
nan nan nan nan nan 3 3 8 2 10 20 18 9 24 30 13 19 26 30 30 30 32 37 40 41 nan nan nan nan nan 35 35 39 28 46 38 38 29 21 12 nan nan nan nan nan nan nan nan nan
nan nan nan 8 nan 3 2 6 4 10 19 22 26 25 29 30 33 28 31 32 37 37 39 40 40 nan nan nan nan nan nan 37 42 35 40 41 26 16 13 15 nan nan nan nan nan nan nan nan nan
nan nan nan 7 6 9 3 11 10 24 21 21 18 22 23 28 29 30 32 34 41 40 43 nan nan nan nan nan nan 32 37 39 36 40 50 30 21 15 10 12 nan nan nan nan nan nan nan nan nan
nan nan nan 13 7 1 7 nan nan 20 18 24 19 18 23 27 28 30 nan nan nan nan nan nan nan nan nan nan nan nan 22 32 42 23 20 18 11 9 10 12 16 nan nan nan nan nan nan nan nan
nan nan nan nan 13 16 nan nan 45 24 17 25 26 20 22 24 nan nan nan nan nan nan nan nan nan nan nan nan nan nan 28 34 24 20 13 7 4 7 12 15 17 nan nan nan nan nan nan nan nan
nan nan nan 25 nan nan nan nan 9 22 15 22 26 nan 26 32 nan nan nan nan nan nan nan nan nan nan nan 5 6 10 7 12 13 9 7 2 8 11 13 16 nan nan nan nan nan nan nan nan nan
nan nan nan nan nan nan nan nan 25 22 17 16 19 23 nan nan nan nan nan nan nan nan nan nan 5 6 4 3 11 15 6 3 5 3 2 6 13 12 13 nan nan nan nan nan nan nan nan nan nan
nan nan nan nan nan nan nan nan nan 28 17 17 19 29 nan nan 18 3 nan nan nan nan nan nan 3 3 7 8 7 4 2 3 6 8 8 13 14 9 11 nan nan nan nan nan nan nan nan nan nan
nan nan nan nan nan nan nan nan nan 26 17 19 19 21 26 31 28 28 27 26 nan nan nan nan 14 9 9 7 4 nan 7 10 9 12 14 16 nan nan 13 nan nan nan nan nan nan nan nan nan nan
nan nan nan nan nan nan nan nan nan 27 23 16 19 21 23 23 27 28 27 24 22 nan nan 17 14 11 10 7 nan 11 16 14 15 15 18 17 nan nan nan nan nan nan nan nan nan nan nan nan nan
nan nan nan nan nan nan nan nan nan nan 26 21 16 19 23 25 22 23 25 24 23 21 20 16 17 17 15 10 16 15 20 17 15 17 20 nan nan nan nan nan nan nan nan nan nan nan nan nan nan
nan nan nan nan nan 12 nan nan nan nan nan 25 19 20 23 26 29 25 24 24 23 21 18 18 16 15 21 19 10 18 13 17 21 22 nan nan nan nan nan nan nan nan nan nan nan nan nan nan nan
nan nan nan nan 6 3 nan nan nan nan nan nan nan 23 21 28 28 28 29 26 23 21 21 20 19 17 18 23 18 23 19 21 25 21 nan nan nan nan nan nan nan nan nan nan nan nan nan nan nan
nan nan 4 5 3 5 nan nan nan nan nan nan nan nan 27 27 20 23 31 27 23 27 24 21 22 20 22 25 24 22 23 23 26 25 nan nan nan nan nan nan nan nan nan nan nan nan nan nan nan
nan nan 3 6 10 10 nan nan nan nan nan nan nan nan nan 21 25 23 28 26 26 27 30 28 26 23 24 22 23 23 32 25 30 22 nan nan nan nan nan nan nan nan nan nan nan nan nan nan nan
nan nan nan 18 nan 14 10 9 nan nan nan nan nan nan 20 18 12 20 21 24 25 27 28 26 24 25 26 25 25 26 25 22 25 27 34 nan nan nan nan nan nan nan nan nan nan nan nan nan nan
nan nan nan nan nan 8 3 4 6 nan nan nan nan nan 26 21 18 13 16 21 23 26 26 27 25 25 27 30 28 27 27 30 32 36 38 42 nan nan nan nan nan nan nan nan nan nan nan nan nan
nan nan nan nan nan 9 7 10 nan nan nan nan nan nan nan 22 23 22 19 19 23 27 26 26 26 27 30 34 34 33 33 36 38 38 43 46 50 nan nan nan nan nan nan nan nan nan nan nan nan
nan nan nan nan nan nan nan 14 nan nan nan nan nan nan nan nan 23 23 23 22 21 23 27 29 28 29 36 38 42 42 39 44 50 52 51 51 53 nan nan nan nan nan nan nan nan nan nan nan nan
Wind_Direction
nan nan nan nan nan nan nan nan nan nan nan 229 nan nan 183 195 224 202 222 228 251 258 267 275 269 276 279 283 284 285 285 286 288 289 288 287 288 288 284 288 288 286 284 278 277 279 276 279 279
nan nan nan nan nan nan nan nan nan nan 248 242 246 nan 221 197 nan 126 202 217 246 253 263 275 274 281 283 283 284 284 284 284 287 287 287 285 283 285 284 285 279 281 276 273 273 274 277 277 281
nan nan nan nan nan nan nan nan nan 245 263 267 286 281 231 223 257 249 212 237 249 264 271 266 271 278 281 278 277 277 279 281 288 291 289 284 281 284 274 272 271 270 268 270 273 274 278 280 278
nan nan nan nan nan nan nan nan nan 268 285 292 236 261 252 232 216 213 221 239 257 262 269 268 268 273 280 273 271 273 274 279 285 294 286 282 280 276 270 262 265 257 263 270 272 272 275 273 279
nan nan nan nan nan nan nan 228 205 129 286 303 276 283 235 235 213 205 231 239 276 268 255 268 259 263 273 268 268 271 274 276 280 284 280 284 278 273 266 256 256 251 254 264 270 271 271 270 279
nan nan nan nan nan nan 278 nan nan 107 351 306 263 238 nan nan nan 210 204 234 254 258 258 259 263 256 263 266 267 272 272 275 274 278 276 275 277 276 264 251 254 249 251 257 265 265 267 271 nan
nan nan nan nan nan 235 241 319 112 116 65 216 270 319 280 295 nan 185 190 217 246 242 239 253 250 256 257 260 260 261 269 274 273 277 271 267 270 275 264 249 251 245 250 254 259 260 264 nan nan
nan nan nan nan nan nan 308 286 351 121 191 268 218 242 264 350 359 4 211 221 248 251 186 209 233 252 258 252 246 241 247 263 270 271 270 269 272 266 259 242 241 240 246 256 nan nan nan nan nan
nan nan nan nan nan nan 267 249 269 256 157 270 247 227 263 289 267 254 250 250 254 269 276 266 249 250 nan nan 259 245 241 244 273 273 nan nan nan nan 258 244 243 248 nan nan nan nan nan nan nan
nan nan nan nan nan nan nan 292 274 276 297 300 269 269 272 280 271 260 264 271 267 262 270 273 280 nan nan nan 241 252 255 256 nan nan nan nan nan 262 258 246 nan nan nan nan nan nan nan nan nan
nan nan nan nan nan nan nan 358 287 142 148 235 236 280 285 284 266 260 257 264 272 276 270 277 276 273 nan nan nan 276 254 282 286 296 269 265 262 265 255 nan nan nan nan nan nan nan nan nan nan
nan nan nan nan nan 172 154 228 245 258 238 240 251 280 282 277 264 250 252 265 264 266 276 283 282 nan nan nan nan nan 271 276 276 286 279 251 259 249 245 211 nan nan nan nan nan nan nan nan nan
nan nan nan 223 nan 344 285 329 288 281 259 248 257 283 268 262 261 256 260 254 263 268 271 271 279 nan nan nan nan nan nan 271 270 287 285 265 251 191 164 214 nan nan nan nan nan nan nan nan nan
nan nan nan 295 327 298 29 313 348 291 297 280 262 258 268 271 267 266 263 262 263 262 264 nan nan nan nan nan nan 264 266 271 266 278 270 229 190 172 207 240 nan nan nan nan nan nan nan nan nan
nan nan nan 6 338 247 300 nan nan 294 293 292 283 272 257 260 268 264 nan nan nan nan nan nan nan nan nan nan nan nan 276 267 270 242 198 162 186 212 229 234 260 nan nan nan nan nan nan nan nan
nan nan nan nan 75 293 nan nan 52 313 302 287 294 277 256 260 nan nan nan nan nan nan nan nan nan nan nan nan nan nan 276 261 210 164 139 153 191 271 271 284 281 nan nan nan nan nan nan nan nan
nan nan nan 352 nan nan nan nan 342 299 307 305 304 nan 255 252 nan nan nan nan nan nan nan nan nan nan nan 292 191 167 154 159 148 156 172 343 276 284 273 272 nan nan nan nan nan nan nan nan nan
nan nan nan nan nan nan nan nan 292 310 313 320 316 310 nan nan nan nan nan nan nan nan nan nan 206 88 55 124 92 85 97 132 132 177 227 264 263 260 266 nan nan nan nan nan nan nan nan nan nan
nan nan nan nan nan nan nan nan nan 313 326 324 349 338 nan nan 26 7 nan nan nan nan nan nan 124 41 77 69 70 80 74 243 239 243 256 272 271 265 259 nan nan nan nan nan nan nan nan nan nan
nan nan nan nan nan nan nan nan nan 318 349 335 352 347 352 357 6 14 23 39 nan nan nan nan 42 39 26 7 3 nan 267 273 276 269 273 281 nan nan 282 nan nan nan nan nan nan nan nan nan nan
nan nan nan nan nan nan nan nan nan 317 340 342 350 352 353 356 354 2 12 6 10 nan nan 10 4 360 346 340 nan 291 277 270 264 281 280 269 nan nan nan nan nan nan nan nan nan nan nan nan nan
nan nan nan nan nan nan nan nan nan nan 338 342 348 352 354 354 0 360 358 1 7 8 6 5 353 347 337 330 308 308 290 288 287 279 269 nan nan nan nan nan nan nan nan nan nan nan nan nan nan
nan nan nan nan nan 118 nan nan nan nan nan 342 351 353 351 352 346 355 1 357 359 358 352 352 359 349 317 315 316 296 289 279 266 259 nan nan nan nan nan nan nan nan nan nan nan nan nan nan nan
nan nan nan nan 82 107 nan nan nan nan nan nan nan 334 349 347 346 347 347 351 352 340 342 341 349 340 315 304 314 304 307 280 275 278 nan nan nan nan nan nan nan nan nan nan nan nan nan nan nan
nan nan 25 287 267 12 nan nan nan nan nan nan nan nan 323 339 342 346 349 344 346 343 341 337 341 338 323 315 310 315 307 297 289 289 nan nan nan nan nan nan nan nan nan nan nan nan nan nan nan
nan nan 215 326 260 263 nan nan nan nan nan nan nan nan nan 313 335 348 346 346 345 343 343 343 339 338 333 327 323 329 314 281 302 320 nan nan nan nan nan nan nan nan nan nan nan nan nan nan nan
nan nan nan 208 nan 228 207 306 nan nan nan nan nan nan 278 284 306 333 339 336 340 337 342 341 337 337 337 328 320 327 327 324 303 309 306 nan nan nan nan nan nan nan nan nan nan nan nan nan nan
nan nan nan nan nan 257 343 266 261 nan nan nan nan nan 259 259 265 290 320 328 327 327 330 330 334 332 328 322 316 309 316 311 303 300 303 302 nan nan nan nan nan nan nan nan nan nan nan nan nan
nan nan nan nan nan 245 219 220 nan nan nan nan nan nan nan 265 271 269 285 306 319 316 319 320 321 321 314 306 304 299 298 304 299 299 292 292 292 nan nan nan nan nan nan nan nan nan nan nan nan
nan nan nan nan nan nan nan 229 nan nan nan nan nan nan nan nan 272 279 284 292 300 305 306 308 306 305 300 299 297 293 291 286 289 288 282 286 293 nan nan nan nan nan nan nan nan nan nan nan nan